Satellite: RADIO ROSTO
Catalog number: 23439
Epoch time:      103029.24918450
Element set:     684 
Inclination:       64.8160 deg
RA of node:        74.3419 deg
Eccentricity:    0.0147359
Arg of perigee:   119.1840 deg
Mean anomaly:     242.3917 deg
Mean motion:   11.27547749 rev/day
Decay rate:   -4.1999E-007 rev/day^2
Epoch rev:           33330
Checksum:              326

Satellite: NOAA 14
Catalog number: 23455
Epoch time:      103031.84600858
Element set:     507 
Inclination:       99.1875 deg
RA of node:        49.9474 deg
Eccentricity:    0.0008632
Arg of perigee:   280.8489 deg
Mean anomaly:      79.1710 deg
Mean motion:   14.13290170 rev/day
Decay rate:    1.2399E-006 rev/day^2
Epoch rev:           41697
Checksum:              338

Satellite: HIMAWARI 5 (GM
Catalog number: 23522
Epoch time:      103030.18453899
Element set:     77 
Inclination:        1.7234 deg
RA of node:        83.6295 deg
Eccentricity:    0.0000323
Arg of perigee:    46.4388 deg
Mean anomaly:     205.3212 deg
Mean motion:    1.00263904 rev/day
Decay rate:   -2.9299E-006 rev/day^2
Epoch rev:            2869
Checksum:              411

Satellite: HOT BIRD 1
Catalog number: 23537
Epoch time:      103013.80550721
Element set:     533 
Inclination:        0.0070 deg
RA of node:       236.2796 deg
Eccentricity:    0.0008090
Arg of perigee:    86.9786 deg
Mean anomaly:      92.5958 deg
Mean motion:    1.00275871 rev/day
Decay rate:    1.0700E-006 rev/day^2
Epoch rev:            2861
Checksum:              279

Satellite: GOES 9
Catalog number: 23581
Epoch time:      103031.49884696
Element set:     498 
Inclination:        0.3154 deg
RA of node:       277.7072 deg
Eccentricity:    0.0012790
Arg of perigee:   253.4411 deg
Mean anomaly:     356.2791 deg
Mean motion:    1.00049027 rev/day
Decay rate:    1.1500E-006 rev/day^2
Epoch rev:            2818
Checksum:              290

Satellite: INMARSAT 3-F1
Catalog number: 23839
Epoch time:      103030.84841383
Element set:     859 
Inclination:        0.0663 deg
RA of node:       334.5996 deg
Eccentricity:    0.0003403
Arg of perigee:   327.7436 deg
0Mean anomaly:     196.6295 deg
Mean motion:    1.00270064 rev/day
Decay rate:    6.9999E-008 rev/day^2
Epoch rev:            2502
Checksum:              319

Satellite: ASTRA 1F
Catalog number: 23842
Epoch time:      103023.00000000
Element set:     557 
Inclination:        0.0122 deg
RA of node:       319.8851 deg
Eccentricity:    0.0002995
Arg of perigee:    65.1991 deg
Mean anomaly:     116.0362 deg
Mean motion:    1.00273184 rev/day
Decay rate:    1.2399E-006 rev/day^2
Epoch rev:            2485
Checksum:              244

Satellite: JAS 2
Catalog number: 24278
Epoch time:      103029.94283167
Element set:     567 
Inclination:       98.5329 deg
RA of node:       183.8297 deg
Eccentricity:    0.0349995
Arg of perigee:   267.4507 deg
Mean anomaly:      88.6526 deg
Mean motion:   13.52870113 rev/day
Decay rate:   -9.0000E-008 rev/day^2
Epoch rev:           31865
Checksum:              355

Satellite: UNAMSAT
Catalog number: 24305
Epoch time:      103030.18270153
Element set:     658 
Inclination:       82.9358 deg
0RA of node:       277.1206 deg
Eccentricity:    0.0028666
Arg of perigee:   258.4363 deg
Mean anomaly:     101.3563 deg
0Mean motion:   13.73449538 rev/day
0Decay rate:    2.0499E-006 rev/day^2
0Epoch rev:           32082
Checksum:              304

Satellite: INMARSAT 3-F2
Catalog number: 24307
Epoch time:      103028.98107061
Element set:     78 
Inclination:        0.0655 deg
RA of node:        15.7782 deg
Eccentricity:    0.0004502
Arg of perigee:   290.9367 deg
Mean anomaly:     158.7309 deg
Mean motion:    1.00270738 rev/day
Decay rate:   -1.2900E-006 rev/day^2
Epoch rev:            2341
Checksum:              274

Satellite: HOT BIRD 2
Catalog number: 24665
Epoch time:      103022.98977813
Element set:     340 
Inclination:        0.0347 deg
RA of node:       162.8644 deg
Eccentricity:    0.0004202
Arg of perigee:   151.1719 deg
Mean anomaly:     177.1880 deg
Mean motion:    1.00271548 rev/day
Decay rate:    9.9999E-009 rev/day^2
Epoch rev:            2299
Checksum:              314

Satellite: INMARSAT 3-F3
Catalog number: 24674
Epoch time:      103030.49359037
Element set:     979 
Inclination:        0.0368 deg
RA of node:       316.8146 deg
Eccentricity:    0.0004318
Arg of perigee:   340.8464 deg
Mean anomaly:     187.4180 deg
Mean motion:    1.00273299 rev/day
Decay rate:    3.0999E-007 rev/day^2
0Epoch rev:            2239
0Checksum:              316

Satellite: GOES 10
Catalog number: 24786
Epoch time:      103030.75158067
Element set:     525 
Inclination:        0.0919 deg
RA of node:       107.3747 deg
Eccentricity:    0.0003109
Arg of perigee:   217.7654 deg
Mean anomaly:     300.4458 deg
Mean motion:    1.00285790 rev/day
Decay rate:    7.5000E-007 rev/day^2
Epoch rev:            2114
Checksum:              270

Satellite: INMARSAT 3-F4
Catalog number: 24819
Epoch time:      103031.22607970
Element set:     873 
Inclination:        0.0301 deg
RA of node:       296.7270 deg
Eccentricity:    0.0004064
Arg of perigee:    25.5465 deg
Mean anomaly:     195.0875 deg
Mean motion:    1.00267703 rev/day
Decay rate:   -2.9600E-006 rev/day^2
Epoch rev:            2082
Checksum:              274

Satellite: FENGYUN 2A
Catalog number: 24834
Epoch time:      103031.74743807
Element set:     951 
Inclination:        2.5284 deg
RA of node:        88.6518 deg
Eccentricity:    0.0002886
Arg of perigee:   265.2553 deg
Mean anomaly:     131.2777 deg
Mean motion:    1.00260694 rev/day
Decay rate:   -2.0099E-006 rev/day^2
Epoch rev:            2066
Checksum:              301

Satellite: HOT BIRD 3
Catalog number: 24931
Epoch time:      103023.22766377
Element set:     421 
Inclination:        0.0604 deg
RA of node:       227.5595 deg
Eccentricity:    0.0010036
Arg of perigee:    81.3762 deg
Mean anomaly:     268.1866 deg
Mean motion:    1.00274291 rev/day
Decay rate:    9.9999E-009 rev/day^2
Epoch rev:            1980
Checksum:              302

Satellite: METEOSAT 7
Catalog number: 24932
Epoch time:      103029.08980325
Element set:     240 
Inclination:        0.1718 deg
RA of node:        58.2503 deg
Eccentricity:    0.0000821
Arg of perigee:   266.4382 deg
Mean anomaly:     195.6196 deg
Mean motion:    1.00275192 rev/day
Decay rate:   -9.0000E-008 rev/day^2
Epoch rev:            1981
Checksum:              391

Satellite: ASTRA 1G
Catalog number: 25071
Epoch time:      103023.00000000
Element set:     388 
Inclination:        0.0122 deg
RA of node:       319.8851 deg
Eccentricity:    0.0002995
Arg of perigee:    65.1991 deg
Mean anomaly:     116.0322 deg
Mean motion:    1.00273184 rev/day
Decay rate:    1.2399E-006 rev/day^2
Epoch rev:            1887
Checksum:              243

Satellite: INMARSAT 3-F5
Catalog number: 25153
Epoch time:      103028.98434608
Element set:     837 
Inclination:        0.4569 deg
RA of node:       357.4680 deg
Eccentricity:    0.0004493
Arg of perigee:   322.9274 deg
Mean anomaly:     186.7353 deg
Mean motion:    1.00272183 rev/day
Decay rate:    1.3600E-006 rev/day^2
Epoch rev:            1829
Checksum:              306

Satellite: HOT BIRD 4
Catalog number: 25237
Epoch time:      103013.80550721
Element set:     325 
Inclination:        0.0242 deg
RA of node:       116.4838 deg
Eccentricity:    0.0007929
Arg of perigee:   193.6371 deg
Mean anomaly:     105.7449 deg
Mean motion:    1.00276095 rev/day
Decay rate:    1.0700E-006 rev/day^2
Epoch rev:            1818
Checksum:              265

Satellite: NOAA 15
Catalog number: 25338
Epoch time:      103031.89457865
Element set:     991 
Inclination:       98.5502 deg
RA of node:        54.5232 deg
Eccentricity:    0.0010911
Arg of perigee:    13.4698 deg
Mean anomaly:     346.6772 deg
Mean motion:   14.24235888 rev/day
Decay rate:    1.4500E-006 rev/day^2
Epoch rev:           24528
Checksum:              323

Satellite: RESURS O1-N4
Catalog number: 25394
Epoch time:      103032.20877552
Element set:     437 
Inclination:       98.6359 deg
RA of node:       110.4577 deg
Eccentricity:    0.0001890
Arg of perigee:   134.8037 deg
Mean anomaly:     225.3295 deg
Mean motion:   14.23870837 rev/day
Decay rate:    1.0100E-006 rev/day^2
Epoch rev:           23706
Checksum:              302

Satellite: TMSAT
Catalog number: 25396
Epoch time:      103031.89335883
Element set:     819 
Inclination:       98.6291 deg
RA of node:       109.3410 deg
Eccentricity:    0.0002769
Arg of perigee:   163.7970 deg
Mean anomaly:     196.3299 deg
Mean motion:   14.23505785 rev/day
Decay rate:   -4.3000E-007 rev/day^2
Epoch rev:           23701
Checksum:              323

Satellite: TECHSAT 1B
Catalog number: 25397
Epoch time:      103029.93946311
Element set:     124 
Inclination:       98.6263 deg
RA of node:       106.3341 deg
Eccentricity:    0.0000991
Arg of perigee:   164.5017 deg
Mean anomaly:     195.6192 deg
Mean motion:   14.22955094 rev/day
Decay rate:    7.6999E-007 rev/day^2
Epoch rev:           23670
Checksum:              328

Satellite: ASTRA 2A
Catalog number: 25462
Epoch time:      103023.69277567
Element set:     529 
Inclination:        0.0332 deg
RA of node:        23.2945 deg
Eccentricity:    0.0014243
Arg of perigee:   166.1651 deg
Mean anomaly:     210.9165 deg
Mean motion:    1.00270553 rev/day
Decay rate:    9.9999E-009 rev/day^2
Epoch rev:            1618
Checksum:              292

